X

Important NEWS



New Hub Active

Miami is our new hub! Old members can request transfer via hr@dlxairways.net

Thank you very much and have nice flight.


Deluxe Airways.

X

Tours



Hello again, we created one nice test tour for all pilots to attend. also this is ment to be testing of our tour system

Available Tours

If you find some issues please inform us.

Thank you very much and have nice flight.


Deluxe Airways.

 METAR AND TAF INFORMATION
ArrayMETAR FOR EDDF
16794958 6 EDDF 250650Z 10004KT 050V170 CAVOK 22/16 Q1019 NOSIG EDDF 2019-08-25T06:50:00Z 50.05 8.6 22.0 16.0 100 4 6.21 30.088583 TRUE VFR METAR 113.0 EDDF 250620Z 12003KT 060V180 CAVOK 22/16 Q1019 NOSIG EDDF 2019-08-25T06:20:00Z 50.05 8.6 22.0 16.0 120 3 6.21 30.088583 TRUE VFR METAR 113.0 EDDF 250550Z VRB01KT CAVOK 20/16 Q1018 NOSIG EDDF 2019-08-25T05:50:00Z 50.05 8.6 20.0 16.0 0 1 6.21 30.059055 TRUE VFR METAR 113.0 EDDF 250520Z 10003KT 070V140 CAVOK 19/16 Q1018 NOSIG EDDF 2019-08-25T05:20:00Z 50.05 8.6 19.0 16.0 100 3 6.21 30.059055 TRUE VFR METAR 113.0

 AIRPORT MAP

 RUNWAY INFORMATION
Runway 07C Runway length 13123 ft Runway width 197 ft
Runway elevation 329 ft Runway displaced threshold 0 ft Runway heading 70
Runway 25C Runway length 13123 ft Runway width 197 ft
Runway elevation 364 ft Runway displaced threshold 0 ft Runway heading 250
Runway 07L Runway length 9186 ft Runway width 148 ft
Runway elevation 305 ft Runway displaced threshold 0 ft Runway heading 70
Runway 25R Runway length 9186 ft Runway width 148 ft
Runway elevation 353 ft Runway displaced threshold 0 ft Runway heading 250
Runway 07R Runway length 13123 ft Runway width 148 ft
Runway elevation 328 ft Runway displaced threshold 0 ft Runway heading 70
Runway 25L Runway length 13123 ft Runway width 148 ft
Runway elevation 362 ft Runway displaced threshold 0 ft Runway heading 250
Runway 18 Runway length 13123 ft Runway width 148 ft
Runway elevation 326 ft Runway displaced threshold 0 ft Runway heading 180
Runway 36 Runway length 13123 ft Runway width 148 ft
Runway elevation 316 ft Runway displaced threshold 0 ft Runway heading 360

 AIRPORT FREQUENCIES
Type A/D Name LANGEN RAD Frequency 118.45 MHZ
Type A/D Name LANGEN RAD Frequency 127.275 MHZ
Type AFIS Name LANGEN INF Frequency 119.15 MHZ
Type ATIS Name ATIS Frequency 118.025 MHZ
Type CLD Name DELIVERY Frequency 121.9 MHZ
Type DIR Name DIR Frequency 124.2 MHZ
Type GND Name GND Frequency 121.8 MHZ
Type RMP Name APN Frequency 121.7 MHZ
Type TWR Name TWR Frequency 119.9 MHZ

 AIRPORT NEAR NAVIGATION AIDS
Type VORTAC Name Frankfurt Frequency 114200 KHZ
Type NDB Name Frankfurt Frequency 297 KHZ
Type DME Name Frankfurt Frequency 115900 KHZ
Type NDB Name Frankfurt Frequency 382 KHZ



Powered by Virtual Airlines Manager [v2.6.2]

Template code change by DeluxeAir